Location: Unspecified
(0.0000°N, 0.0000°E)
Time: 15:27:13
(UTC+00:00)

USA 281 - Visible Passes

Search period start: 28 May 2023 00:00
Search period end: 07 June 2023 00:00
Orbit: 1077 x 1081 km, 106.0° (Epoch: 20 May)

Date Brightness Start Highest point End Pass type
(mag) Time Alt. Az. Time Alt. Az. Time Alt. Az.
28 May 4.5 20:37:07 10° N 20:40:18 31° N 20:40:18 31° N visible
29 May 4.9 19:48:00 10° NE 19:49:12 16° NE 19:49:12 16° NE visible
29 May 5.5 21:33:47 10° NNW 21:36:03 17° NW 21:36:03 17° NW visible
30 May 4.8 20:42:25 10° N 20:44:57 25° N 20:44:57 25° N visible
31 May 5.1 19:53:17 10° NE 19:53:54 13° NE 19:53:54 13° NE visible
31 May 5.6 21:39:07 10° NNW 21:40:44 15° NW 21:40:44 15° NW visible
01 Jun 5.0 20:47:44 10° N 20:49:42 21° N 20:49:42 21° N visible
02 Jun 5.3 19:58:35 10° NE 19:58:41 10° NE 19:58:41 10° NE visible
02 Jun 5.7 21:44:28 10° NNW 21:45:31 13° NW 21:45:31 13° NW visible
03 Jun 5.2 20:53:03 10° N 20:54:31 18° N 20:54:31 18° N visible
04 Jun 5.8 21:49:48 10° NNW 21:50:22 12° NNW 21:50:22 12° NNW visible
05 Jun 5.3 20:58:21 10° N 20:59:23 15° N 20:59:23 15° N visible
06 Jun 5.8 21:55:08 10° NNW 21:55:15 10° NNW 21:55:15 10° NNW visible
